Regional Weather Roundup
Issued by NWS Boston, MA

Home | Current Version | Previous Version | Text Only | Print | Product List | Glossary On
Versions: 1 2 3 4 5 6 7 8 9 10 11 12 13 14 15 16 17 18 19 20 21 22 23 24 25 26 27 28 29 30 31 32 33 34 35 36 37 38 39 40 41 42 43 44 45 46 47 48 49 50
000
ASUS41 KBOX 210210
RWRBOX

REGIONAL WEATHER ROUNDUP
NATIONAL WEATHER SERVICE TAUNTON MA
1000 PM EDT THU JUL 20 2017

NOTE:  "FAIR" INDICATES FEW OR NO CLOUDS BELOW 12,000 FEET WITH NO
SIGNIFICANT WEATHER AND/OR OBSTRUCTIONS TO VISIBILITY.

MAZALL-210300-
EASTERN MASSACHUSETTS

CITY           SKY/WX    TMP DP  RH WIND       PRES   REMARKS
BOSTON         CLOUDY    78  68  71 NE5       29.84S
BEVERLY        CLOUDY    74  69  85 SW5       29.83S
LAWRENCE       CLOUDY    80  65  59 CALM      29.85F
BEDFORD        MOCLDY    76  67  73 W3        29.83S
BLUE HILL        N/A     78  67  68 W7        29.86R
NORWOOD        MOCLDY    81  70  69 W5        29.83S
MARSHFIELD     CLOUDY    81  70  69 VRB6      29.82F
PLYMOUTH       CLOUDY    78  69  73 SW7       29.84S
TAUNTON        CLOUDY    75  71  87 CALM      29.83F
NEW BEDFORD    CLOUDY    76  71  85 S7        29.83F
$$

MAZALL-210300-
CAPE COD AND THE ISLANDS

CITY           SKY/WX    TMP DP  RH WIND       PRES   REMARKS
FALMOUTH       CLOUDY    75  73  94 W10       29.86S
HYANNIS        CLOUDY    77  74  90 SW12      29.84S
CHATHAM        CLOUDY    75  75 100 VRB6      29.86S FOG
PROVINCETOWN   CLOUDY    73  71  93 SW12      29.83F
NANTUCKET      FOG       72  72 100 SW6       29.85F VSB 1/4
MARTHAS VNYRD  CLOUDY    76  74  93 SW7       29.86S FOG
$$

MAZALL-210300-
CENTRAL AND WESTERN MASSACHUSETTS

CITY           SKY/WX    TMP DP  RH WIND       PRES   REMARKS
WORCESTER      MOCLDY    75  62  64 NW7       29.90R
FITCHBURG      PTCLDY    78  67  68 CALM      29.87R
ORANGE         PTCLDY    72  68  87 CALM      29.88R
SPRINGFIELD    MOCLDY    71  68  90 CALM      29.86R
WESTFIELD      CLOUDY    72  69  90 CALM      29.86R
NORTH ADAMS    CLOUDY    66  62  87 CALM      29.90R
PITTSFIELD     CLOUDY    70  62  76 N3        29.91S
$$

RIZALL-210300-
RHODE ISLAND

CITY           SKY/WX    TMP DP  RH WIND       PRES   REMARKS
PROVIDENCE     CLOUDY    81  73  76 SW8       29.84S
NEWPORT        CLOUDY    76  74  93 CALM      29.84F
BLOCK ISLAND   CLOUDY    76  74  93 SW14      29.85F
WESTERLY       CLOUDY    77  72  84 CALM      29.85F
$$

CTZALL-210300-
CONNECTICUT

CITY           SKY/WX    TMP DP  RH WIND       PRES   REMARKS
BRADLEY INTL   CLOUDY    73  70  90 N5        29.86R
HARTFORD       PTCLDY    80  69  69 CALM      29.85R
BRIDGEPORT     LGT RAIN  83  73  72 W8        29.84R
DANBURY        CLOUDY    72  67  84 W5        29.89R
GROTON         CLOUDY    78  72  81 CALM      29.84S
NEW HAVEN      CLOUDY    83  73  72 NW7       29.85R
CHESTER        FAIR      79  75  89 SW3       29.87R
MERIDEN        CLOUDY    79  68  69 CALM      29.85R
WILLIMANTIC    CLOUDY    75  73  93 N5        29.86R
OXFORD         PTCLDY    75  63  64 NW6       29.88S
$$

MEZ002-015-021-024-NHZ003-005-008-011-012-014-VTZ005-008-210300-
NORTHERN NEW ENGLAND

CITY           SKY/WX    TMP DP  RH WIND       PRES   REMARKS
PORTLAND ME    CLOUDY    74  65  73 SW7       29.82R
BANGOR ME      CLOUDY    71  61  70 NE5       29.81F
CONCORD NH     CLEAR     75  64  68 CALM      29.84S
MANCHESTER NH  PTCLDY    76  60  57 CALM      29.82F
NASHUA NH      PTCLDY    74  65  73 CALM      29.85S
PORTSMOUTH NH  PTCLDY    71  66  84 CALM      29.81F
JAFFREY NH     CLOUDY    70  63  78 CALM      29.90R
KEENE NH       CLEAR     67  63  87 CALM      29.88R
BURLINGTON VT  CLEAR     70  64  81 CALM      29.86R
MT. WASHINGTON FOG       50  50 100 W36         N/A  VSB 1/8
$$

NYZ052-076-210300-
EASTERN NEW YORK

CITY           SKY/WX    TMP DP  RH WIND       PRES   REMARKS
ALBANY         PTCLDY    72  63  73 CALM      29.89R
NEW YORK CITY  CLOUDY    81  70  69 W10       29.88R
$$

ANZALL-210300-
MARINE OBSERVATIONS

STATION/POSITION TIME  TEMP    WIND        PRES    VSBY  WAVE
                       AIR SEA DIR/SP/G                  HT/PER
                 (UTC) (F)     (DEG/KT/KT) (MB)    (MI)  (FT/S)
BOSTON BUOY      0150   81 72  360/  2/  6 1009.8R         1/14
BUZZARDS BAY     0200   74     230/ 12/ 12 1010.9F
NANTUCKET SOUND  0150      72              1010.3F         1/ 3
MASS BAY-STELLWA 0104   70 64   80/  6/  6 1009.4R         1/ 5
ISLE OF SHOALS   0200   71     200/ 11/ 11 1009.4F
S OF BLOCK IS    0155      74                N/A           3/ 8
$$

......................KEY.........................
  SKY/WX - SKY CONDITION/PRESENT WEATHER
  TMP    - TEMPERATURE IN FAHRENHEIT
  DWPT   - DEWPOINT IN FAHRENHEIT
  RH     - RELATIVE HUMIDITY IN PERCENT
  WIND   - DIRECTION AND SPEED IN MPH
  PRES   - MEAN SEA LEVEL PRESSURE IN INCHES OF HG
  WCI    - WIND CHILL INDEX
  VSB    - VISIBILITY IN MILES
  HX     - HEAT INDEX
  TC     - TEMPERATURE IN CELSIUS
  VRB    - VARIABLE WIND DIRECTION
  N/A    - NOT AVAILABLE



USA.gov is the U.S. government's official web portal to all federal, state and local government web resources and services.